Powrót do katalogu

SL-16 DEB

AktywnyLEO
NORAD 39305·DEBRIS·🇷🇺 Russia

Wystrzelony Dec 25, 1992 z Baikonur Cosmodrome

Loading…

Następne Przeloty (najbliższe 24 godziny)

TLE

ŚwieżeSource: Space-Track

Epoka: Sep 14, 2026, 10:43 UTC

1 39305U 92093JW  26257.44683786  .00000197  00000-0  15281-3 0  9998
2 39305  70.9623 176.5554 0093225 235.4835 123.7453 14.02469410269758

Śledź SL-16 DEB w czasie rzeczywistym z AllMySat

Download on the App Store